Location: Bard
(39.9279°N, 78.6592°W)
Time: 07:52:01
(UTC+00:00)

ARIANE 6 FM1 Upper Stage - Pass Details

Date: 20 December 2025
Orbit: 522 x 610 km, 62.0° (Epoch: 14 January)

Event Time Altitude Azimuth Distance (km) Brightness Sun altitude
Exits shadow 09:50:40 13° 39° (NE) 1,614 5.3 -30.0°
Drops below altitude 10° 09:51:04 10° 39° (NE) 1,776 5.5 -30.0°
Sets 09:53:15 0° 38° (NE) 2,662 6.5 -29.5°
